Home   Weather   Papeete   Past weeks

Flag for French Polynesia Past Weather in Papeete, Tahiti, French Polynesia — Yesterday and Last 2 Weeks

81 °F

Passing clouds.

Feels Like: 82 °F
Forecast: 78 / 85 °F
Wind: 8 mph from East

Location: Tahiti-Faaa

Current Time: Oct 24, 2016 at 8:44:08 PM

Latest Report: Oct 24, 2016 at 8:00 PM

Visibility: N/A

Pressure: 29.95 "Hg

Humidity: 58%

Dew Point: 64 °F

Location of PapeeteLocation

Past Weather in Papeete — Graph


Papeete Temperature Yesterday

Maximum temperature yesterday: 88 °F (at 11:30 AM)
Minimum temperature yesterday: 75 °F (at 3:30 AM)
Average temperature yesterday: 81 °F

High & Low Weather Summary for the Past Weeks

High88 °F (Oct 20, 10:30 AM)94% (Oct 18, 11:00 PM)29.98 "Hg (Oct 18, 11:00 PM)
Low70 °F (Oct 16, 4:00 AM)38% (Oct 16, 1:00 PM)29.74 "Hg (Oct 12, 2:30 PM)
Average80 °F66%29.89 "Hg
* Reported Oct 9 7:00 PM — Oct 24 7:30 PM, Papeete, Weather by CustomWeather, © 2016

Note: Actual official high and low records may vary slightly from our data, if they occured in-between our weather recording intervals... More about our weather records


Papeete Weather History for the Previous 24 Hours

Scroll right to see more
Time TempWeatherWind HumidityBarometerVisibility
7:30 PM
Mon, Oct 24
81 °FPassing clouds.9 mph58%29.95 "HgN/A
7:00 PM81 °FPassing clouds.12 mph66%29.95 "HgN/A
6:30 PM82 °FPassing clouds.14 mph62%29.95 "HgN/A
6:00 PM82 °FPassing clouds.15 mph62%29.92 "HgN/A
5:30 PM82 °FPassing clouds.14 mph62%29.92 "HgN/A
5:00 PM84 °FPassing clouds.15 mph62%29.92 "HgN/A
4:30 PM84 °FPassing clouds.12 mph62%29.92 "HgN/A
4:00 PM86 °FPassing clouds.13 mph59%29.89 "HgN/A
3:30 PM86 °FScattered clouds.14 mph59%29.89 "HgN/A
3:00 PM86 °FScattered clouds.13 mph59%29.89 "HgN/A
2:30 PM86 °FScattered clouds.14 mph59%29.89 "HgN/A
2:00 PM86 °FScattered clouds.18 mph62%29.89 "HgN/A
1:00 PM88 °FPassing clouds.22 mph55%29.89 "HgN/A
12:30 PM86 °FPassing clouds.24 mph62%29.89 "HgN/A
12:00 PM86 °FPassing clouds.23 mph62%29.92 "HgN/A
11:30 AM86 °FPassing clouds.22 mph62%29.92 "HgN/A
11:00 AM86 °FPassing clouds.23 mph62%29.92 "HgN/A
10:30 AM86 °FPassing clouds.23 mph62%29.92 "HgN/A
10:00 AM86 °FPassing clouds.21 mph62%29.95 "HgN/A
9:30 AM86 °FPassing clouds.20 mph62%29.95 "HgN/A
9:00 AM86 °FPassing clouds.15 mph59%29.95 "HgN/A
8:30 AM84 °FPassing clouds.15 mph62%29.95 "HgN/A
8:00 AM84 °FPassing clouds.15 mph62%29.95 "HgN/A
7:30 AM84 °FPassing clouds.7 mph58%29.95 "HgN/A
7:00 AM81 °FPassing clouds.8 mph70%29.95 "HgN/A
6:30 AM77 °FPassing clouds.3 mph74%29.95 "HgN/A
6:00 AM75 °FPassing clouds.3 mph78%29.92 "HgN/A
5:30 AM75 °FPartly sunny.2 mph78%29.92 "HgN/A
5:00 AM75 °FPassing clouds.2 mph78%29.92 "HgN/A
4:30 AM77 °FWarm.3 mph74%29.92 "HgN/A
4:00 AM77 °FPassing clouds.5 mph74%29.89 "HgN/A
3:30 AM77 °FOvercast.3 mph74%29.89 "HgN/A
3:00 AM77 °FPassing clouds.3 mph79%29.89 "HgN/A
2:30 AM77 °FPassing clouds.5 mph79%29.89 "HgN/A
2:00 AM77 °FPassing clouds.1 mph79%29.89 "HgN/A
1:30 AM77 °FPassing clouds.2 mph79%29.92 "HgN/A
1:00 AM77 °FPassing clouds.1 mph79%29.92 "HgN/A
12:30 AM77 °FPassing clouds.3 mph79%29.92 "HgN/A
12:00 AM77 °FPassing clouds.5 mph79%29.95 "HgN/A
11:00 PM
Sun, Oct 23
79 °FPassing clouds.3 mph74%29.95 "HgN/A
10:30 PM79 °FPassing clouds.3 mph74%29.98 "HgN/A
10:00 PM79 °FPassing clouds.3 mph74%29.98 "HgN/A
9:30 PM79 °FPassing clouds.3 mph74%29.98 "HgN/A
9:00 PM79 °FPassing clouds.3 mph70%29.95 "HgN/A
8:30 PM81 °FPassing clouds.2 mph66%29.95 "HgN/A
8:00 PM81 °FPassing clouds.3 mph66%29.95 "HgN/A
Weather by CustomWeather, © 2016

See weather overviewHow to use our weather pages